Time,TemperatureF,DewpointF,PressureIn,WindDirection,WindDirectionDegrees,WindSpeedMPH,WindSpeedGustMPH,Humidity,HourlyPrecipIn,Conditions,Clouds,dailyrainin,SoftwareType,DateUTC
2013-01-20 00:05:00,47.3,45.4,30.24,SSE,157,0.0,0.0,93,0.00,,,0.00,Wunderground v.1.15,2013-01-20 05:05:00,
2013-01-20 00:15:00,47.2,45.6,30.24,SSE,157,0.0,0.0,94,0.00,,,0.00,Wunderground v.1.15,2013-01-20 05:15:00,
2013-01-20 00:20:00,47.2,45.6,30.24,SSE,157,0.0,0.0,94,0.00,,,0.00,Wunderground v.1.15,2013-01-20 05:20:00,
2013-01-20 00:25:00,47.1,45.5,30.24,SSE,157,0.0,0.0,94,0.00,,,0.00,Wunderground v.1.15,2013-01-20 05:25:00,
2013-01-20 00:35:00,46.6,45.0,30.23,SSE,157,0.0,0.0,94,0.00,,,0.00,Wunderground v.1.15,2013-01-20 05:35:00,
2013-01-20 00:40:00,46.8,45.4,30.23,SSE,157,0.0,0.0,95,0.00,,,0.00,Wunderground v.1.15,2013-01-20 05:40:00,
2013-01-20 00:50:00,47.4,46.0,30.23,SSE,157,0.0,0.0,95,0.00,,,0.00,Wunderground v.1.15,2013-01-20 05:50:00,
2013-01-20 00:55:00,47.4,46.0,30.23,SSE,157,0.0,0.0,95,0.00,,,0.00,Wunderground v.1.15,2013-01-20 05:55:00,
2013-01-20 01:05:00,47.5,46.1,30.23,SSE,157,0.0,0.0,95,0.00,,,0.00,Wunderground v.1.15,2013-01-20 06:05:00,
2013-01-20 01:15:00,47.2,45.6,30.23,SSE,157,0.0,0.0,94,0.00,,,0.00,Wunderground v.1.15,2013-01-20 06:15:00,
2013-01-20 01:25:00,47.4,46.0,30.22,SSE,157,0.0,0.0,95,0.00,,,0.00,Wunderground v.1.15,2013-01-20 06:25:00,
2013-01-20 01:35:00,47.9,46.5,30.22,SSE,157,0.0,0.0,95,0.00,,,0.00,Wunderground v.1.15,2013-01-20 06:35:00,
2013-01-20 01:40:00,48.1,46.7,30.22,SSE,157,0.0,0.0,95,0.00,,,0.00,Wunderground v.1.15,2013-01-20 06:40:00,
2013-01-20 01:50:00,48.1,46.7,30.22,SSE,157,0.0,0.0,95,0.00,,,0.00,Wunderground v.1.15,2013-01-20 06:50:00,
2013-01-20 02:00:00,48.4,47.0,30.22,SSE,157,0.0,0.0,95,0.00,,,0.00,Wunderground v.1.15,2013-01-20 07:00:00,
2013-01-20 02:05:00,48.6,47.5,30.22,SSE,157,0.0,0.0,96,0.00,,,0.00,Wunderground v.1.15,2013-01-20 07:05:00,
2013-01-20 02:15:00,48.8,47.4,30.21,SSE,157,0.0,0.0,95,0.00,,,0.00,Wunderground v.1.15,2013-01-20 07:15:00,
2013-01-20 02:25:00,48.8,47.4,30.21,SSE,157,0.0,0.0,95,0.00,,,0.00,Wunderground v.1.15,2013-01-20 07:25:00,
2013-01-20 02:35:00,48.6,47.2,30.21,SSE,157,0.0,0.0,95,0.00,,,0.00,Wunderground v.1.15,2013-01-20 07:35:00,
2013-01-20 02:45:00,48.6,47.5,30.20,SSE,157,0.0,0.0,96,0.00,,,0.00,Wunderground v.1.15,2013-01-20 07:45:00,
2013-01-20 02:50:00,48.7,47.3,30.20,SSE,157,0.0,0.0,95,0.00,,,0.00,Wunderground v.1.15,2013-01-20 07:50:00,
2013-01-20 03:00:00,49.3,48.2,30.20,SSE,157,0.0,0.0,96,0.00,,,0.00,Wunderground v.1.15,2013-01-20 08:00:00,
2013-01-20 03:10:00,49.4,48.3,30.20,SSE,157,0.0,0.0,96,0.00,,,0.00,Wunderground v.1.15,2013-01-20 08:10:00,
2013-01-20 03:20:00,50.1,49.0,30.20,SSE,157,0.0,0.0,96,0.00,,,0.00,Wunderground v.1.15,2013-01-20 08:20:00,
2013-01-20 03:25:00,50.1,48.7,30.20,SSE,157,0.0,0.0,95,0.00,,,0.00,Wunderground v.1.15,2013-01-20 08:25:00,
2013-01-20 03:35:00,50.3,48.9,30.20,SSE,157,0.0,0.0,95,0.00,,,0.00,Wunderground v.1.15,2013-01-20 08:35:00,
2013-01-20 03:45:00,50.5,49.1,30.19,SSE,157,0.0,0.0,95,0.00,,,0.00,Wunderground v.1.15,2013-01-20 08:45:00,
2013-01-20 03:55:00,50.4,49.0,30.19,SSE,157,0.0,0.0,95,0.00,,,0.00,Wunderground v.1.15,2013-01-20 08:55:00,
2013-01-20 04:00:00,50.3,48.9,30.18,SSE,157,0.0,0.0,95,0.00,,,0.00,Wunderground v.1.15,2013-01-20 09:00:00,
2013-01-20 04:05:00,49.9,48.5,30.18,SSE,157,0.0,0.0,95,0.00,,,0.00,Wunderground v.1.15,2013-01-20 09:05:00,
2013-01-20 04:15:00,49.4,47.7,30.18,SSE,157,0.0,0.0,94,0.00,,,0.00,Wunderground v.1.15,2013-01-20 09:15:00,
2013-01-20 04:25:00,49.5,48.1,30.18,SSE,157,0.0,0.0,95,0.00,,,0.00,Wunderground v.1.15,2013-01-20 09:25:00,
2013-01-20 04:30:00,49.5,48.1,30.18,SSE,157,1.0,5.0,95,0.00,,,0.00,Wunderground v.1.15,2013-01-20 09:30:00,
2013-01-20 04:40:00,50.2,48.5,30.19,SSE,157,6.0,6.0,94,0.00,,,0.00,Wunderground v.1.15,2013-01-20 09:40:00,
2013-01-20 04:50:00,49.8,47.9,30.19,SSE,157,5.0,5.0,93,0.00,,,0.00,Wunderground v.1.15,2013-01-20 09:50:00,
2013-01-20 05:00:00,49.4,47.5,30.18,SSE,157,4.0,4.0,93,0.00,,,0.00,Wunderground v.1.15,2013-01-20 10:00:00,
2013-01-20 05:05:00,49.3,47.4,30.18,SSE,157,2.0,4.0,93,0.00,,,0.00,Wunderground v.1.15,2013-01-20 10:05:00,
2013-01-20 05:15:00,49.0,47.1,30.18,SSE,157,1.0,4.0,93,0.00,,,0.00,Wunderground v.1.15,2013-01-20 10:15:00,
2013-01-20 05:25:00,48.9,47.2,30.18,SSE,157,2.0,2.0,94,0.00,,,0.00,Wunderground v.1.15,2013-01-20 10:25:00,
2013-01-20 05:35:00,49.0,47.1,30.18,SSE,157,4.0,4.0,93,0.00,,,0.00,Wunderground v.1.15,2013-01-20 10:35:00,
2013-01-20 05:45:00,48.6,46.7,30.18,SSE,157,4.0,5.0,93,0.00,,,0.00,Wunderground v.1.15,2013-01-20 10:45:00,
2013-01-20 05:55:00,48.6,46.7,30.18,SSE,157,4.0,4.0,93,0.00,,,0.00,Wunderground v.1.15,2013-01-20 10:55:00,
2013-01-20 06:05:00,48.1,46.2,30.18,SSE,157,2.0,4.0,93,0.00,,,0.00,Wunderground v.1.15,2013-01-20 11:05:00,
2013-01-20 06:15:00,47.6,45.7,30.18,SSE,157,0.0,1.0,93,0.00,,,0.00,Wunderground v.1.15,2013-01-20 11:15:00,
2013-01-20 06:25:00,47.2,45.3,30.19,SSE,157,0.0,0.0,93,0.00,,,0.00,Wunderground v.1.15,2013-01-20 11:25:00,
2013-01-20 06:30:00,47.0,45.4,30.18,SSE,157,0.0,0.0,94,0.00,,,0.00,Wunderground v.1.15,2013-01-20 11:30:00,
2013-01-20 06:35:00,47.0,45.4,30.18,SSE,157,0.0,0.0,94,0.00,,,0.00,Wunderground v.1.15,2013-01-20 11:35:00,
2013-01-20 06:45:00,47.0,45.4,30.19,SSE,157,0.0,0.0,94,0.00,,,0.00,Wunderground v.1.15,2013-01-20 11:45:00,
2013-01-20 06:50:00,47.0,45.4,30.19,SSE,157,0.0,0.0,94,0.00,,,0.00,Wunderground v.1.15,2013-01-20 11:50:00,
2013-01-20 07:00:00,46.9,45.3,30.19,SSE,157,0.0,0.0,94,0.00,,,0.00,Wunderground v.1.15,2013-01-20 12:00:00,
2013-01-20 07:10:00,46.7,45.1,30.19,SSE,157,0.0,9.0,94,0.00,,,0.00,Wunderground v.1.15,2013-01-20 12:10:00,
2013-01-20 07:20:00,46.7,45.1,30.19,SSE,157,3.0,9.0,94,0.00,,,0.00,Wunderground v.1.15,2013-01-20 12:20:00,
2013-01-20 07:25:00,46.8,45.2,30.19,SSE,157,3.0,9.0,94,0.00,,,0.00,Wunderground v.1.15,2013-01-20 12:25:00,
2013-01-20 07:30:00,46.9,45.3,30.19,SSE,157,3.0,9.0,94,0.00,,,0.00,Wunderground v.1.15,2013-01-20 12:30:00,
2013-01-20 07:40:00,47.1,45.5,30.19,SSE,157,3.0,3.0,94,0.00,,,0.00,Wunderground v.1.15,2013-01-20 12:40:00,
2013-01-20 07:45:00,47.4,45.8,30.19,SSE,157,4.0,5.0,94,0.00,,,0.00,Wunderground v.1.15,2013-01-20 12:45:00,
2013-01-20 07:55:00,48.7,46.2,30.19,West,268,6.0,9.0,91,0.00,,,0.00,Wunderground v.1.15,2013-01-20 12:55:00,
2013-01-20 08:05:00,49.6,46.2,30.19,West,279,7.0,9.0,88,0.00,,,0.00,Wunderground v.1.15,2013-01-20 13:05:00,
2013-01-20 08:15:00,49.8,46.4,30.19,West,279,7.0,7.0,88,0.00,,,0.00,Wunderground v.1.15,2013-01-20 13:15:00,
2013-01-20 08:25:00,50.1,46.7,30.19,West,280,7.0,8.0,88,0.00,,,0.00,Wunderground v.1.15,2013-01-20 13:25:00,
2013-01-20 08:35:00,50.2,47.1,30.19,West,280,6.0,7.0,89,0.00,,,0.00,Wunderground v.1.15,2013-01-20 13:35:00,
2013-01-20 08:45:00,50.9,47.5,30.19,WNW,290,8.0,11.0,88,0.00,,,0.00,Wunderground v.1.15,2013-01-20 13:45:00,
2013-01-20 08:50:00,51.3,47.6,30.19,WNW,301,8.0,13.0,87,0.00,,,0.00,Wunderground v.1.15,2013-01-20 13:50:00,
2013-01-20 08:55:00,51.7,47.3,30.19,WNW,294,8.0,13.0,85,0.00,,,0.00,Wunderground v.1.15,2013-01-20 13:55:00,
2013-01-20 09:05:00,52.5,47.8,30.20,WNW,293,8.0,13.0,84,0.00,,,0.00,Wunderground v.1.15,2013-01-20 14:05:00,
2013-01-20 09:15:00,53.5,47.5,30.20,WNW,290,10.0,13.0,80,0.00,,,0.00,Wunderground v.1.15,2013-01-20 14:15:00,
2013-01-20 09:20:00,53.9,47.5,30.20,WNW,288,12.0,12.0,79,0.00,,,0.00,Wunderground v.1.15,2013-01-20 14:20:00,
2013-01-20 09:25:00,54.3,47.2,30.20,WNW,298,13.0,13.0,77,0.00,,,0.00,Wunderground v.1.15,2013-01-20 14:25:00,
2013-01-20 09:30:00,54.6,47.2,30.20,WNW,292,12.0,13.0,76,0.00,,,0.00,Wunderground v.1.15,2013-01-20 14:30:00,
2013-01-20 09:35:00,54.8,47.0,30.20,WNW,296,11.0,13.0,75,0.00,,,0.00,Wunderground v.1.15,2013-01-20 14:35:00,
2013-01-20 09:45:00,55.3,46.8,30.20,WNW,282,12.0,14.0,73,0.00,,,0.00,Wunderground v.1.15,2013-01-20 14:45:00,
2013-01-20 09:55:00,55.8,46.9,30.20,NW,311,10.0,13.0,72,0.00,,,0.00,Wunderground v.1.15,2013-01-20 14:55:00,
2013-01-20 10:00:00,55.9,46.6,30.20,WNW,303,8.0,13.0,71,0.00,,,0.00,Wunderground v.1.15,2013-01-20 15:00:00,
2013-01-20 10:05:00,56.1,46.4,30.20,NW,311,10.0,17.0,70,0.00,,,0.00,Wunderground v.1.15,2013-01-20 15:05:00,
2013-01-20 10:15:00,56.2,46.2,30.20,WNW,291,13.0,14.0,69,0.00,,,0.00,Wunderground v.1.15,2013-01-20 15:15:00,
2013-01-20 10:25:00,56.5,46.1,30.19,WNW,296,13.0,14.0,68,0.00,,,0.00,Wunderground v.1.15,2013-01-20 15:25:00,
2013-01-20 10:35:00,57.0,44.1,30.19,West,278,10.0,13.0,62,0.00,,,0.00,Wunderground v.1.15,2013-01-20 15:35:00,
2013-01-20 10:45:00,57.7,43.9,30.18,WNW,300,14.0,14.0,60,0.00,,,0.00,Wunderground v.1.15,2013-01-20 15:45:00,
2013-01-20 10:55:00,57.5,42.8,30.18,WNW,299,13.0,18.0,58,0.00,,,0.00,Wunderground v.1.15,2013-01-20 15:55:00,
2013-01-20 11:05:00,57.6,42.0,30.17,WNW,289,14.0,20.0,56,0.00,,,0.00,Wunderground v.1.15,2013-01-20 16:05:00,
2013-01-20 11:15:00,58.1,41.0,30.17,WNW,298,13.0,14.0,53,0.00,,,0.00,Wunderground v.1.15,2013-01-20 16:15:00,
2013-01-20 11:25:00,58.7,39.0,30.15,WNW,299,12.0,20.0,48,0.00,,,0.00,Wunderground v.1.15,2013-01-20 16:25:00,
2013-01-20 11:35:00,59.4,38.6,30.14,NW,325,11.0,20.0,46,0.00,,,0.00,Wunderground v.1.15,2013-01-20 16:35:00,
2013-01-20 11:40:00,59.4,36.9,30.14,WNW,303,12.0,20.0,43,0.00,,,0.00,Wunderground v.1.15,2013-01-20 16:40:00,
2013-01-20 11:50:00,59.7,34.7,30.13,NW,304,12.0,20.0,39,0.00,,,0.00,Wunderground v.1.15,2013-01-20 16:50:00,
2013-01-20 11:55:00,59.8,35.4,30.13,WNW,300,13.0,20.0,40,0.00,,,0.00,Wunderground v.1.15,2013-01-20 16:55:00,
2013-01-20 12:00:00,60.0,35.6,30.12,NW,323,13.0,13.0,40,0.00,,,0.00,Wunderground v.1.15,2013-01-20 17:00:00,
2013-01-20 12:05:00,60.2,35.8,30.12,WNW,287,10.0,14.0,40,0.00,,,0.00,Wunderground v.1.15,2013-01-20 17:05:00,
2013-01-20 12:15:00,60.6,34.8,30.11,WNW,289,12.0,12.0,38,0.00,,,0.00,Wunderground v.1.15,2013-01-20 17:15:00,
2013-01-20 12:20:00,60.5,36.0,30.11,WNW,290,10.0,10.0,40,0.00,,,0.00,Wunderground v.1.15,2013-01-20 17:20:00,
2013-01-20 12:30:00,60.8,36.9,30.09,West,278,11.0,12.0,41,0.00,,,0.00,Wunderground v.1.15,2013-01-20 17:30:00,
2013-01-20 12:40:00,61.4,34.9,30.08,WNW,286,11.0,11.0,37,0.00,,,0.00,Wunderground v.1.15,2013-01-20 17:40:00,
2013-01-20 12:50:00,61.3,34.8,30.08,West,277,11.0,11.0,37,0.00,,,0.00,Wunderground v.1.15,2013-01-20 17:50:00,
2013-01-20 13:00:00,62.1,31.9,30.08,WNW,290,11.0,11.0,32,0.00,,,0.00,Wunderground v.1.15,2013-01-20 18:00:00,
2013-01-20 13:10:00,62.4,35.1,30.07,WNW,292,11.0,11.0,36,0.00,,,0.00,Wunderground v.1.15,2013-01-20 18:10:00,
2013-01-20 13:20:00,61.1,41.2,30.07,WSW,248,10.0,21.0,48,0.00,,,0.00,Wunderground v.1.15,2013-01-20 18:20:00,
2013-01-20 13:25:00,60.8,42.5,30.07,WSW,246,9.0,21.0,51,0.00,,,0.00,Wunderground v.1.15,2013-01-20 18:25:00,
2013-01-20 13:35:00,60.6,41.3,30.07,WSW,250,8.0,21.0,49,0.00,,,0.00,Wunderground v.1.15,2013-01-20 18:35:00,
2013-01-20 13:40:00,60.3,41.6,30.07,WSW,248,9.0,21.0,50,0.00,,,0.00,Wunderground v.1.15,2013-01-20 18:40:00,
2013-01-20 13:50:00,61.0,42.7,30.07,WSW,248,8.0,21.0,51,0.00,,,0.00,Wunderground v.1.15,2013-01-20 18:50:00,
2013-01-20 14:00:00,61.3,42.0,30.06,WSW,245,9.0,21.0,49,0.00,,,0.00,Wunderground v.1.15,2013-01-20 19:00:00,
2013-01-20 14:05:00,61.1,42.3,30.06,WSW,250,8.0,21.0,50,0.00,,,0.00,Wunderground v.1.15,2013-01-20 19:05:00,
2013-01-20 14:15:00,61.3,43.0,30.06,WSW,249,6.0,7.0,51,0.00,,,0.00,Wunderground v.1.15,2013-01-20 19:15:00,
2013-01-20 14:25:00,61.2,42.9,30.06,WSW,244,7.0,8.0,51,0.00,,,0.00,Wunderground v.1.15,2013-01-20 19:25:00,
2013-01-20 14:35:00,61.0,42.7,30.06,WSW,246,8.0,11.0,51,0.00,,,0.00,Wunderground v.1.15,2013-01-20 19:35:00,
2013-01-20 14:40:00,60.7,43.9,30.06,WSW,247,10.0,12.0,54,0.00,,,0.00,Wunderground v.1.15,2013-01-20 19:40:00,
2013-01-20 14:50:00,61.1,43.3,30.05,WSW,243,9.0,12.0,52,0.00,,,0.00,Wunderground v.1.15,2013-01-20 19:50:00,
2013-01-20 15:00:00,60.6,43.9,30.05,WSW,245,10.0,11.0,54,0.00,,,0.00,Wunderground v.1.15,2013-01-20 20:00:00,
2013-01-20 15:05:00,60.7,44.4,30.05,WSW,245,9.0,14.0,55,0.00,,,0.00,Wunderground v.1.15,2013-01-20 20:05:00,
2013-01-20 15:10:00,60.2,44.9,30.05,WSW,243,9.0,14.0,57,0.00,,,0.00,Wunderground v.1.15,2013-01-20 20:10:00,
2013-01-20 15:20:00,60.1,46.2,30.05,WSW,241,8.0,8.0,60,0.00,,,0.00,Wunderground v.1.15,2013-01-20 20:20:00,
2013-01-20 15:30:00,60.0,46.5,30.05,WSW,239,8.0,14.0,61,0.00,,,0.00,Wunderground v.1.15,2013-01-20 20:30:00,
2013-01-20 15:35:00,59.9,46.8,30.05,WSW,239,8.0,14.0,62,0.00,,,0.00,Wunderground v.1.15,2013-01-20 20:35:00,
2013-01-20 15:45:00,59.8,47.6,30.05,WSW,239,8.0,14.0,64,0.00,,,0.00,Wunderground v.1.15,2013-01-20 20:45:00,
2013-01-20 15:50:00,59.5,47.7,30.05,WSW,239,7.0,7.0,65,0.00,,,0.00,Wunderground v.1.15,2013-01-20 20:50:00,
2013-01-20 15:55:00,59.2,48.2,30.05,WSW,239,7.0,14.0,67,0.00,,,0.00,Wunderground v.1.15,2013-01-20 20:55:00,
2013-01-20 16:05:00,59.0,48.4,30.05,WSW,238,7.0,14.0,68,0.00,,,0.00,Wunderground v.1.15,2013-01-20 21:05:00,
2013-01-20 16:15:00,59.2,48.2,30.05,WSW,241,6.0,6.0,67,0.00,,,0.00,Wunderground v.1.15,2013-01-20 21:15:00,
2013-01-20 16:20:00,59.3,48.7,30.05,WSW,241,5.0,6.0,68,0.00,,,0.00,Wunderground v.1.15,2013-01-20 21:20:00,
2013-01-20 16:30:00,58.8,49.4,30.06,WSW,241,5.0,5.0,71,0.00,,,0.00,Wunderground v.1.15,2013-01-20 21:30:00,
2013-01-20 16:35:00,58.7,49.7,30.06,WSW,241,5.0,7.0,72,0.00,,,0.00,Wunderground v.1.15,2013-01-20 21:35:00,
2013-01-20 16:40:00,58.7,50.4,30.06,WSW,244,5.0,6.0,74,0.00,,,0.00,Wunderground v.1.15,2013-01-20 21:40:00,
2013-01-20 16:45:00,58.4,50.1,30.06,WSW,244,5.0,6.0,74,0.00,,,0.00,Wunderground v.1.15,2013-01-20 21:45:00,
2013-01-20 16:55:00,58.2,50.0,30.06,WSW,244,7.0,8.0,74,0.00,,,0.00,Wunderground v.1.15,2013-01-20 21:55:00,
2013-01-20 17:05:00,58.0,50.1,30.06,WSW,244,7.0,11.0,75,0.00,,,0.00,Wunderground v.1.15,2013-01-20 22:05:00,
2013-01-20 17:10:00,58.0,49.8,30.06,WSW,244,6.0,6.0,74,0.00,,,0.00,Wunderground v.1.15,2013-01-20 22:10:00,
2013-01-20 17:20:00,57.8,50.6,30.06,WSW,244,5.0,5.0,77,0.00,,,0.00,Wunderground v.1.15,2013-01-20 22:20:00,
2013-01-20 17:30:00,57.3,50.5,30.07,WSW,244,2.0,11.0,78,0.00,,,0.00,Wunderground v.1.15,2013-01-20 22:30:00,
2013-01-20 17:40:00,56.9,51.1,30.07,WSW,244,5.0,5.0,81,0.00,,,0.00,Wunderground v.1.15,2013-01-20 22:40:00,
2013-01-20 17:50:00,56.5,51.4,30.07,WSW,244,1.0,1.0,83,0.00,,,0.00,Wunderground v.1.15,2013-01-20 22:50:00,
2013-01-20 18:00:00,56.1,51.3,30.07,WSW,244,0.0,11.0,84,0.00,,,0.00,Wunderground v.1.15,2013-01-20 23:00:00,
2013-01-20 18:05:00,56.0,51.2,30.07,WSW,244,1.0,11.0,84,0.00,,,0.00,Wunderground v.1.15,2013-01-20 23:05:00,
2013-01-20 18:15:00,56.0,51.2,30.08,WSW,244,4.0,5.0,84,0.00,,,0.00,Wunderground v.1.15,2013-01-20 23:15:00,
2013-01-20 18:25:00,56.0,51.2,30.08,WSW,244,4.0,5.0,84,0.00,,,0.00,Wunderground v.1.15,2013-01-20 23:25:00,
2013-01-20 18:30:00,56.0,51.2,30.08,WSW,244,4.0,4.0,84,0.00,,,0.00,Wunderground v.1.15,2013-01-20 23:30:00,
2013-01-20 18:40:00,55.8,51.4,30.08,WSW,244,4.0,4.0,85,0.00,,,0.00,Wunderground v.1.15,2013-01-20 23:40:00,
2013-01-20 18:45:00,55.8,51.4,30.09,WSW,244,4.0,5.0,85,0.00,,,0.00,Wunderground v.1.15,2013-01-20 23:45:00,
2013-01-20 18:50:00,55.7,51.3,30.09,WSW,244,4.0,4.0,85,0.00,,,0.00,Wunderground v.1.15,2013-01-20 23:50:00,
2013-01-20 18:55:00,55.6,51.2,30.09,WSW,244,4.0,4.0,85,0.00,,,0.00,Wunderground v.1.15,2013-01-20 23:55:00,
2013-01-20 19:05:00,55.3,50.9,30.09,WSW,244,0.0,6.0,85,0.00,,,0.00,Wunderground v.1.15,2013-01-21 00:05:00,
2013-01-20 19:15:00,55.2,51.1,30.09,WSW,244,0.0,6.0,86,0.00,,,0.00,Wunderground v.1.15,2013-01-21 00:15:00,
2013-01-20 19:25:00,55.2,51.1,30.09,WSW,244,0.0,6.0,86,0.00,,,0.00,Wunderground v.1.15,2013-01-21 00:25:00,
2013-01-20 19:35:00,55.3,51.2,30.09,WSW,244,0.0,6.0,86,0.00,,,0.00,Wunderground v.1.15,2013-01-21 00:35:00,
2013-01-20 19:45:00,55.1,51.3,30.09,WSW,244,0.0,6.0,87,0.00,,,0.00,Wunderground v.1.15,2013-01-21 00:45:00,
2013-01-20 19:50:00,55.1,51.3,30.09,WSW,244,0.0,6.0,87,0.00,,,0.00,Wunderground v.1.15,2013-01-21 00:50:00,
2013-01-20 20:00:00,55.0,51.2,30.09,WSW,244,0.0,6.0,87,0.00,,,0.00,Wunderground v.1.15,2013-01-21 01:00:00,
2013-01-20 20:05:00,54.9,51.4,30.09,WSW,244,0.0,6.0,88,0.00,,,0.00,Wunderground v.1.15,2013-01-21 01:05:00,
2013-01-20 20:15:00,54.4,50.9,30.10,WSW,244,0.0,0.0,88,0.00,,,0.00,Wunderground v.1.15,2013-01-21 01:15:00,
2013-01-20 20:25:00,54.6,50.5,30.10,WSW,244,0.0,0.0,86,0.00,,,0.00,Wunderground v.1.15,2013-01-21 01:25:00,
2013-01-20 20:30:00,54.6,50.2,30.10,WSW,244,0.0,0.0,85,0.00,,,0.00,Wunderground v.1.15,2013-01-21 01:30:00,
2013-01-20 20:40:00,54.2,49.8,30.10,WSW,244,0.0,0.0,85,0.00,,,0.00,Wunderground v.1.15,2013-01-21 01:40:00,
2013-01-20 20:50:00,53.8,48.4,30.10,WSW,244,0.0,0.0,82,0.00,,,0.00,Wunderground v.1.15,2013-01-21 01:50:00,
2013-01-20 20:55:00,54.1,47.0,30.11,WSW,244,0.0,0.0,77,0.00,,,0.00,Wunderground v.1.15,2013-01-21 01:55:00,
2013-01-20 21:00:00,54.1,45.6,30.11,WSW,244,0.0,0.0,73,0.00,,,0.00,Wunderground v.1.15,2013-01-21 02:00:00,
2013-01-20 21:10:00,53.9,45.8,30.11,WSW,244,0.0,0.0,74,0.00,,,0.00,Wunderground v.1.15,2013-01-21 02:10:00,
2013-01-20 21:20:00,55.0,41.8,30.11,WSW,244,0.0,0.0,61,0.00,,,0.00,Wunderground v.1.15,2013-01-21 02:20:00,
2013-01-20 21:30:00,55.1,41.5,30.11,WSW,244,0.0,0.0,60,0.00,,,0.00,Wunderground v.1.15,2013-01-21 02:30:00,
2013-01-20 21:35:00,54.3,40.7,30.12,WSW,244,0.0,0.0,60,0.00,,,0.00,Wunderground v.1.15,2013-01-21 02:35:00,
2013-01-20 21:45:00,53.7,40.1,30.12,WSW,244,0.0,0.0,60,0.00,,,0.00,Wunderground v.1.15,2013-01-21 02:45:00,
2013-01-20 21:55:00,53.5,42.4,30.12,WSW,244,0.0,0.0,66,0.00,,,0.00,Wunderground v.1.15,2013-01-21 02:55:00,
2013-01-20 22:05:00,53.0,42.7,30.12,WSW,244,0.0,0.0,68,0.00,,,0.00,Wunderground v.1.15,2013-01-21 03:05:00,
2013-01-20 22:15:00,53.2,43.7,30.12,WSW,244,0.0,0.0,70,0.00,,,0.00,Wunderground v.1.15,2013-01-21 03:15:00,
2013-01-20 22:20:00,53.2,42.9,30.12,WSW,244,0.0,0.0,68,0.00,,,0.00,Wunderground v.1.15,2013-01-21 03:20:00,
2013-01-20 22:30:00,53.0,43.1,30.12,WSW,244,0.0,0.0,69,0.00,,,0.00,Wunderground v.1.15,2013-01-21 03:30:00,
2013-01-20 22:40:00,53.2,42.9,30.12,WSW,244,0.0,0.0,68,0.00,,,0.00,Wunderground v.1.15,2013-01-21 03:40:00,
2013-01-20 22:45:00,53.0,43.1,30.13,WSW,244,0.0,0.0,69,0.00,,,0.00,Wunderground v.1.15,2013-01-21 03:45:00,
2013-01-20 22:55:00,52.7,42.4,30.13,WSW,244,0.0,0.0,68,0.00,,,0.00,Wunderground v.1.15,2013-01-21 03:55:00,
2013-01-20 23:05:00,52.7,41.7,30.13,WSW,244,0.0,0.0,66,0.00,,,0.00,Wunderground v.1.15,2013-01-21 04:05:00,
2013-01-20 23:15:00,53.2,40.9,30.12,WSW,244,0.0,0.0,63,0.00,,,0.00,Wunderground v.1.15,2013-01-21 04:15:00,
2013-01-20 23:25:00,53.8,42.7,30.12,WSW,244,0.0,0.0,66,0.00,,,0.00,Wunderground v.1.15,2013-01-21 04:25:00,
2013-01-20 23:35:00,54.1,37.3,30.11,WSW,244,0.0,0.0,53,0.00,,,0.00,Wunderground v.1.15,2013-01-21 04:35:00,
2013-01-20 23:40:00,53.5,37.3,30.11,WSW,244,0.0,0.0,54,0.00,,,0.00,Wunderground v.1.15,2013-01-21 04:40:00,
2013-01-20 23:45:00,53.2,37.0,30.11,WSW,244,0.0,0.0,54,0.00,,,0.00,Wunderground v.1.15,2013-01-21 04:45:00,
2013-01-20 23:50:00,53.0,36.3,30.11,WSW,244,0.0,0.0,53,0.00,,,0.00,Wunderground v.1.15,2013-01-21 04:50:00,
2013-01-20 23:55:00,53.0,36.3,30.11,WSW,244,0.0,0.0,53,0.00,,,0.00,Wunderground v.1.15,2013-01-21 04:55:00,